Regional Weather Roundup
Issued by NWS

Home | Current Version | Previous Version | Graphics & Text | Print | Product List | Glossary Off
Versions: 1 2 3 4 5 6 7 8 9 10 11 12 13 14 15 16 17 18 19 20 21 22 23 24 25 26 27 28 29 30 31 32 33 34 35 36 37 38 39 40 41 42 43 44 45 46 47 48 49 50

000
ASUS43 KLSX 231707
RWRMO

WEATHER SUMMARY FOR MISSOURI
NATIONAL WEATHER SERVICE SPRINGFIELD MO
1200 PM CDT WED APR 23 2014

NOTE: "FAIR" INDICATES FEW OR NO CLOUDS BELOW 12,000 FEET WITH NO
       SIGNIFICANT WEATHER AND/OR OBSTRUCTIONS TO VISIBILITY.
       CURRENT SKY AND/OR WEATHER CONDITIONS ARE NOT AVAILABLE FOR
       CHILLICOTHE AND FARMINGTON.

MOZ001>031-035>038-043-044-053-054-231800-
...NORTHERN AND WESTERN MISSOURI...

CITY           SKY/WX    TMP DP  RH WIND       PRES   REMARKS
KANSAS CTY INT PTSUNNY   61  38  42 SE20      29.94F
KANSAS C DTWN  PTSUNNY   64  37  36 SE12      29.96F
LEE`S SUMMIT   PTSUNNY   63  38  39 SE14G22   29.98S
ST JOSEPH      PTSUNNY   58  40  51 SE22G31   29.91F
CHILLICOTHE      N/A     54  39  57 SE9       30.02F
KIRKSVILLE     PTSUNNY   54  36  50 E17       30.07F

$$
MOZ066>068-077>081-088>096-101>105-231800-
...SOUTHWEST MISSOURI...

CITY           SKY/WX    TMP DP  RH WIND       PRES   REMARKS
SPRINGFIELD    MOSUNNY   68  39  34 SE17G29   29.98F
JOPLIN         MOSUNNY   73  44  35 S16G23    29.93F

$$
MOZ032>034-039>042-045>050-055>058-069>072-231800-
...CENTRAL MISSOURI...

CITY           SKY/WX    TMP DP  RH WIND       PRES   REMARKS
COLUMBIA       PTSUNNY   61  36  39 SE9       30.05S
JEFFERSON CITY PTSUNNY   63  34  33 SE12      30.04F
ROLLA          MOSUNNY   64  34  32 SE8       30.03F
SEDALIA        LGT RAIN  60  37  42 SE14      30.01F
WHITEMAN AFB   PTSUNNY   61  31  33 SE12      29.98F
OSAGE BEACH    PTSUNNY   64  34  32 SE8       30.04F

$$
MOZ051-052-059>065-231800-
...EAST CENTRAL MISSOURI...

CITY           SKY/WX    TMP DP  RH WIND       PRES   REMARKS
ST LOUIS INTL  MOSUNNY   61  37  41 E13       30.11F
SPIRIT OF STL  SUNNY     60  39  45 E8        30.09F
ST CHARLES     SUNNY     59  36  42 E13       30.10F

$$
MOZ072>076-082>087-097>100-106>115-231800-
...SOUTH CENTRAL AND SOUTHEAST MISSOURI...

CITY           SKY/WX    TMP DP  RH WIND       PRES   REMARKS
CAPE GIRARDEAU SUNNY     64  39  39 E8        30.08F
FARMINGTON     SUNNY     63  39  42 CALM      30.10F
POPLAR BLUFF   SUNNY     67  37  33 VRB7      30.07F
WEST PLAINS    SUNNY     66  33  29 S9        30.06F

$$



USA.gov is the U.S. government's official web portal to all federal, state and local government web resources and services.